Baudette, MN

12:59 PM CDT on July 28, 2016 (GMT -0500)
Baudette International

Weather History for KBDE - June, 2013

Change the Weather History Date:

Wednesday, June 19, 2013

  Actual Average Record
Temperature  
Mean Temperature 68 °F -  
Max Temperature 82 °F 75 °F 96 °F (1933)
Min Temperature 55 °F 50 °F 31 °F (1940)
Cooling Degree Days 4    
Growing Degree Days 18 (Base 50)    
Moisture  
Dew Point 55 °F    
Average Humidity 60    
Maximum Humidity 93    
Minimum Humidity 42    
Precipitation  
Precipitation 0.00 in - - ()
Sea Level Pressure  
Sea Level Pressure 29.95 in    
Wind  
Wind Speed 5 mph (SW)    
Max Wind Speed 9 mph    
Max Gust Speed -    
Visibility 10 miles    
Events      
Averages and records for this station are not official NWS values.
T = Trace of Precipitation, MM = Missing Value Source: NWS Daily Summary

Daily Weather History Graph

Daily Weather History Graph

Search for Another Location

Airport or City:

Trip Planner

Search our weather history database for the weather conditions in past years. The results will help you decide how hot, cold, wet, or windy it might be!

Date:

Astronomy

Jun. 19, 2013 Rise Set
Actual Time 5:15 AM CDT 9:24 PM CDT
Civil Twilight 4:32 AM CDT 10:07 PM CDT
Nautical Twilight 3:32 AM CDT 11:07 PM CDT
Astronomical Twilight 1:52 AM CDT 12:47 AM CDT
Moon 5:04 PM CDT (6/19) 2:17 AM CDT (6/19)
Length of Visible Light 17h 34m
Length of Day
16h 09m
Waxing Gibbous, 80% of the Moon is Illuminated
Jun 19
Waxing Gibbous
Jun 23
Full
Jun 29
Last Quarter
Jul 8
New
Jul 15
First Quarter

Hourly Weather History & Observations

Time (CDT) Temp. Heat Index Dew Point Humidity Pressure Visibility Wind Dir Wind Speed Gust Speed Precip Events Conditions
12:53 AM 63.0 °F - 46.9 °F 56% 30.00 in 10.0 mi South 4.6 mph - N/A   Overcast
1:53 AM 61.0 °F - 46.9 °F 60% 29.99 in 10.0 mi South 3.5 mph - N/A   Overcast
2:53 AM 61.0 °F - 45.0 °F 56% 29.99 in 10.0 mi South 6.9 mph - N/A   Overcast
3:53 AM 60.1 °F - 46.0 °F 60% 29.98 in 10.0 mi South 8.1 mph - N/A   Overcast
4:53 AM 57.0 °F - 46.9 °F 69% 29.98 in 10.0 mi South 4.6 mph - N/A   Mostly Cloudy
5:53 AM 55.0 °F - 46.9 °F 74% 29.99 in 10.0 mi Calm Calm - N/A   Clear
6:53 AM 61.0 °F - 51.1 °F 70% 29.98 in 10.0 mi South 5.8 mph - N/A   Overcast
7:53 AM 64.0 °F - 53.1 °F 67% 29.99 in 10.0 mi SSW 8.1 mph - N/A   Overcast
8:53 AM 63.0 °F - 55.0 °F 75% 29.99 in 10.0 mi SSW 5.8 mph - N/A   Overcast
9:53 AM 71.1 °F - 57.9 °F 63% 29.98 in 10.0 mi SW 8.1 mph - N/A   Partly Cloudy
10:53 AM 75.9 °F - 55.9 °F 50% 29.96 in 10.0 mi WSW 8.1 mph - N/A   Partly Cloudy
11:53 AM 77.0 °F - 55.9 °F 48% 29.95 in 10.0 mi WSW 8.1 mph - N/A   Partly Cloudy
12:53 PM 81.0 °F 80.8 °F 55.9 °F 42% 29.93 in 10.0 mi SW 9.2 mph - N/A   Clear
1:53 PM 78.1 °F - 59.0 °F 52% 29.93 in 10.0 mi North 3.5 mph - N/A   Mostly Cloudy
2:53 PM 82.0 °F 82.1 °F 59.0 °F 45% 29.91 in 10.0 mi NNW 5.8 mph - N/A   Mostly Cloudy
3:53 PM 82.0 °F 82.0 °F 57.9 °F 44% 29.91 in 10.0 mi NW 4.6 mph - N/A   Mostly Cloudy
4:53 PM 81.0 °F 80.8 °F 55.9 °F 42% 29.91 in 10.0 mi Calm Calm - N/A   Partly Cloudy
5:53 PM 81.0 °F 81.1 °F 57.9 °F 45% 29.91 in 10.0 mi NNW 4.6 mph - N/A   Scattered Clouds
6:53 PM 81.0 °F 81.1 °F 57.9 °F 45% 29.91 in 10.0 mi North 3.5 mph - N/A   Scattered Clouds
7:53 PM 80.1 °F 80.6 °F 57.9 °F 47% 29.91 in 10.0 mi Calm Calm - N/A   Clear
8:53 PM 71.1 °F - 63.0 °F 75% 29.92 in 10.0 mi ESE 5.8 mph - N/A   Clear
9:53 PM 68.0 °F - 62.1 °F 81% 29.94 in 10.0 mi SE 3.5 mph - N/A   Clear
10:53 PM 64.9 °F - 62.1 °F 90% 29.95 in 10.0 mi Calm Calm - N/A   Clear
11:53 PM 62.1 °F - 60.1 °F 93% 29.96 in 10.0 mi East 3.5 mph - N/A   Mostly Cloudy